Bryce Canyon, UT

6:59 AM MST on December 08, 2019 (GMT -0700)
Bryce Canyon

Weather History for KBCE - October, 2019

Change the Weather History Date:

Monday, October 28, 2019

  Actual Average Record
Temperature  
Mean Temperature 23 °F -  
Max Temperature 43 °F 52 °F 69 °F (2008)
Min Temperature 9 °F 24 °F 7 °F (1970)
Degree Days  
Heating Degree Days 42    
Moisture  
Dew Point 1 °F    
Average Humidity 49    
Maximum Humidity 80    
Minimum Humidity 17    
Precipitation  
Precipitation 0.00 in - - ()
Sea Level Pressure  
Sea Level Pressure 29.99 in    
Wind  
Wind Speed 10 mph (West)    
Max Wind Speed 15 mph    
Max Gust Speed -    
Visibility 10 miles    
Events      
Averages and records for this station are not official NWS values.
T = Trace of Precipitation, MM = Missing Value Source: NWS Daily Summary

Daily Weather History Graph

Daily Weather History Graph

Search for Another Location

Airport or City:

Astronomy

Oct. 28, 2019 Rise Set
Actual Time 7:49 AM MDT 6:34 PM MDT
Civil Twilight 7:22 AM MDT 7:01 PM MDT
Nautical Twilight 6:51 AM MDT 7:32 PM MDT
Astronomical Twilight 6:21 AM MDT 8:02 PM MDT
Moon 8:15 AM MDT (10/28) 7:22 PM MDT (10/28)
Length of Visible Light 11h 38m
Length of Day
10h 45m
New Moon, 1% of the Moon is Illuminated
Oct 28
New Moon
Nov 4
First Quarter
Nov 12
Full
Nov 19
Last Quarter
Nov 26
New

Hourly Weather History & Observations

Time (MDT) Temp. Windchill Dew Point Humidity Pressure Visibility Wind Dir Wind Speed Gust Speed Precip Events Conditions
12:53 AM 18.0 °F 5.4 °F 8.1 °F 65% 29.86 in 10.0 mi NW 11.5 mph - N/A   Partly Cloudy
1:53 AM 16.0 °F 4.4 °F 8.1 °F 71% 29.88 in 10.0 mi WNW 9.2 mph - N/A   Mostly Cloudy
2:53 AM 15.1 °F 1.8 °F 8.1 °F 74% 29.90 in 10.0 mi WNW 11.5 mph - N/A   Partly Cloudy
3:53 AM 15.1 °F -0.1 °F 7.0 °F 70% 29.94 in 10.0 mi WNW 15.0 mph - N/A   Scattered Clouds
4:53 AM 12.9 °F -0.9 °F 5.0 °F 71% 30.00 in 10.0 mi NW 11.5 mph - N/A   Clear
5:53 AM 10.9 °F -0.8 °F 3.9 °F 73% 30.04 in 10.0 mi West 8.1 mph - N/A   Clear
6:53 AM 10.0 °F -3.7 °F 3.9 °F 76% 30.09 in 10.0 mi West 10.4 mph - N/A   Clear
7:53 AM 9.0 °F -0.9 °F 3.9 °F 80% 30.12 in 10.0 mi NNW 5.8 mph - N/A   Clear
8:53 AM 14.0 °F 2.9 °F 6.1 °F 71% 30.12 in 10.0 mi WNW 8.1 mph - N/A   Clear
9:53 AM 21.9 °F 10.4 °F 7.0 °F 53% 30.10 in 10.0 mi North 11.5 mph - N/A   Clear
10:53 AM 25.0 °F 16.3 °F 7.0 °F 46% 30.12 in 10.0 mi NNW 8.1 mph - N/A   Clear
11:53 AM 28.0 °F 22.8 °F 6.1 °F 39% 30.08 in 10.0 mi NNW 4.6 mph - N/A   Clear
12:53 PM 30.9 °F 27.5 °F 3.9 °F 32% 30.05 in 10.0 mi Variable 3.5 mph - N/A   Clear
5:53 PM 37.0 °F 31.0 °F -4.0 °F 17% 29.96 in 10.0 mi SSE 8.1 mph - N/A   Clear
6:53 PM 33.1 °F 25.5 °F -4.0 °F 20% 29.99 in 10.0 mi SE 9.2 mph - N/A   Clear
7:53 PM 30.0 °F 21.7 °F -5.1 °F 22% 29.98 in 10.0 mi South 9.2 mph - N/A   Clear
8:53 PM 24.1 °F 17.0 °F -8.0 °F 24% 29.99 in 10.0 mi SW 5.8 mph - N/A   Clear
9:53 PM 26.1 °F 16.8 °F -9.0 °F 21% 29.91 in 10.0 mi SSE 9.2 mph - N/A   Clear
10:53 PM 21.9 °F 14.5 °F -9.0 °F 25% 29.90 in 10.0 mi South 5.8 mph - N/A   Clear
11:53 PM 24.1 °F 18.2 °F -9.0 °F 23% 29.84 in 10.0 mi WSW 4.6 mph - N/A   Scattered Clouds